Time,TemperatureF,DewpointF,PressureIn,WindDirection,WindDirectionDegrees,WindSpeedMPH,WindSpeedGustMPH,Humidity,HourlyPrecipIn,Conditions,Clouds,dailyrainin,SoftwareType,DateUTC
2013-01-23 00:00:00,51.0,39.0,-100.00,East,92,4.0,-999.0,63,0.00,,,-99.99,,2013-01-23 08:00:00,
2013-01-23 00:23:00,51.0,39.0,-100.00,East,92,4.0,-999.0,63,0.00,,,-99.99,,2013-01-23 08:23:00,
2013-01-23 00:33:00,51.0,39.0,-100.00,East,92,4.0,-999.0,63,0.00,,,-99.99,,2013-01-23 08:33:00,
2013-01-23 00:43:00,51.0,39.0,-100.00,East,92,4.0,-999.0,63,0.00,,,-99.99,,2013-01-23 08:43:00,
2013-01-23 00:53:00,51.0,39.0,-100.00,East,92,4.0,-999.0,63,0.00,,,-99.99,,2013-01-23 08:53:00,
2013-01-23 01:00:00,57.0,30.0,-100.00,ESE,113,1.0,-999.0,35,0.00,,,-99.99,,2013-01-23 09:00:00,
2013-01-23 01:23:00,57.0,30.0,-100.00,ESE,113,1.0,-999.0,35,0.00,,,-99.99,,2013-01-23 09:23:00,
2013-01-23 01:33:00,57.0,30.0,-100.00,ESE,113,1.0,-999.0,35,0.00,,,-99.99,,2013-01-23 09:33:00,
2013-01-23 01:43:00,57.0,30.0,-100.00,ESE,113,1.0,-999.0,35,0.00,,,-99.99,,2013-01-23 09:43:00,
2013-01-23 01:53:00,57.0,30.0,-100.00,ESE,113,1.0,-999.0,35,0.00,,,-99.99,,2013-01-23 09:53:00,
2013-01-23 02:00:00,58.0,29.0,-100.00,South,175,3.0,-999.0,33,0.00,,,-99.99,,2013-01-23 10:00:00,
2013-01-23 02:23:00,58.0,29.0,-100.00,South,175,3.0,-999.0,33,0.00,,,-99.99,,2013-01-23 10:23:00,
2013-01-23 02:33:00,58.0,29.0,-100.00,South,175,3.0,-999.0,33,0.00,,,-99.99,,2013-01-23 10:33:00,
2013-01-23 02:43:00,58.0,29.0,-100.00,South,175,3.0,-999.0,33,0.00,,,-99.99,,2013-01-23 10:43:00,
2013-01-23 02:53:00,58.0,29.0,-100.00,South,175,3.0,-999.0,33,0.00,,,-99.99,,2013-01-23 10:53:00,
2013-01-23 03:00:00,57.0,28.0,-100.00,SW,236,3.0,-999.0,32,0.00,,,-99.99,,2013-01-23 11:00:00,
2013-01-23 03:23:00,57.0,28.0,-100.00,SW,236,3.0,-999.0,32,0.00,,,-99.99,,2013-01-23 11:23:00,
2013-01-23 03:34:00,57.0,28.0,-100.00,SW,236,3.0,-999.0,32,0.00,,,-99.99,,2013-01-23 11:34:00,
2013-01-23 03:43:00,57.0,28.0,-100.00,SW,236,3.0,-999.0,32,0.00,,,-99.99,,2013-01-23 11:43:00,
2013-01-23 03:53:00,57.0,28.0,-100.00,SW,236,3.0,-999.0,32,0.00,,,-99.99,,2013-01-23 11:53:00,
2013-01-23 04:00:00,57.0,30.0,-100.00,South,189,2.0,-999.0,36,0.00,,,-99.99,,2013-01-23 12:00:00,
2013-01-23 04:23:00,57.0,30.0,-100.00,South,189,2.0,-999.0,36,0.00,,,-99.99,,2013-01-23 12:23:00,
2013-01-23 04:33:00,57.0,30.0,-100.00,South,189,2.0,-999.0,36,0.00,,,-99.99,,2013-01-23 12:33:00,
2013-01-23 04:43:00,57.0,30.0,-100.00,South,189,2.0,-999.0,36,0.00,,,-99.99,,2013-01-23 12:43:00,
2013-01-23 04:53:00,57.0,30.0,-100.00,South,189,2.0,-999.0,36,0.00,,,-99.99,,2013-01-23 12:53:00,
2013-01-23 05:00:00,51.0,37.0,-100.00,ESE,115,4.0,-999.0,58,0.00,,,-99.99,,2013-01-23 13:00:00,
2013-01-23 05:23:00,51.0,37.0,-100.00,ESE,115,4.0,-999.0,58,0.00,,,-99.99,,2013-01-23 13:23:00,
2013-01-23 05:33:00,51.0,37.0,-100.00,ESE,115,4.0,-999.0,58,0.00,,,-99.99,,2013-01-23 13:33:00,
2013-01-23 05:43:00,51.0,37.0,-100.00,ESE,115,4.0,-999.0,58,0.00,,,-99.99,,2013-01-23 13:43:00,
2013-01-23 05:53:00,51.0,37.0,-100.00,ESE,115,4.0,-999.0,58,0.00,,,-99.99,,2013-01-23 13:53:00,
2013-01-23 07:00:00,49.0,39.0,-100.00,East,88,7.0,-999.0,67,0.00,,,-99.99,,2013-01-23 15:00:00,
2013-01-23 07:23:00,49.0,39.0,-100.00,East,88,7.0,-999.0,67,0.00,,,-99.99,,2013-01-23 15:23:00,
2013-01-23 07:33:00,49.0,39.0,-100.00,East,88,7.0,-999.0,67,0.00,,,-99.99,,2013-01-23 15:33:00,
2013-01-23 07:43:00,49.0,39.0,-100.00,East,88,7.0,-999.0,67,0.00,,,-99.99,,2013-01-23 15:43:00,
2013-01-23 07:53:00,49.0,39.0,-100.00,East,88,7.0,-999.0,67,0.00,,,-99.99,,2013-01-23 15:53:00,
2013-01-23 08:00:00,50.0,38.0,-100.00,North,7,2.0,-999.0,63,0.00,,,-99.99,,2013-01-23 16:00:00,
2013-01-23 08:23:00,50.0,38.0,-100.00,North,7,2.0,-999.0,63,0.00,,,-99.99,,2013-01-23 16:23:00,
2013-01-23 08:33:00,50.0,38.0,-100.00,North,7,2.0,-999.0,63,0.00,,,-99.99,,2013-01-23 16:33:00,
2013-01-23 08:43:00,50.0,38.0,-100.00,North,7,2.0,-999.0,63,0.00,,,-99.99,,2013-01-23 16:43:00,
2013-01-23 08:53:00,50.0,38.0,-100.00,North,7,2.0,-999.0,63,0.00,,,-99.99,,2013-01-23 16:53:00,
2013-01-23 09:00:00,56.0,25.0,-100.00,SW,217,5.0,-999.0,31,0.00,,,-99.99,,2013-01-23 17:00:00,
2013-01-23 09:23:00,56.0,25.0,-100.00,SW,217,5.0,-999.0,31,0.00,,,-99.99,,2013-01-23 17:23:00,
2013-01-23 09:34:00,56.0,25.0,-100.00,SW,217,5.0,-999.0,31,0.00,,,-99.99,,2013-01-23 17:34:00,
2013-01-23 09:43:00,56.0,25.0,-100.00,SW,217,5.0,-999.0,31,0.00,,,-99.99,,2013-01-23 17:43:00,
2013-01-23 09:53:00,56.0,25.0,-100.00,SW,217,5.0,-999.0,31,0.00,,,-99.99,,2013-01-23 17:53:00,
2013-01-23 10:00:00,51.0,29.0,-100.00,South,174,11.0,-999.0,41,0.00,,,-99.99,,2013-01-23 18:00:00,
2013-01-23 10:24:00,51.0,29.0,-100.00,South,174,11.0,-999.0,41,0.00,,,-99.99,,2013-01-23 18:24:00,
2013-01-23 10:33:00,51.0,29.0,-100.00,South,174,11.0,-999.0,41,0.00,,,-99.99,,2013-01-23 18:33:00,
2013-01-23 10:44:00,51.0,29.0,-100.00,South,174,11.0,-999.0,41,0.00,,,-99.99,,2013-01-23 18:44:00,
2013-01-23 10:53:00,51.0,29.0,-100.00,South,174,11.0,-999.0,41,0.00,,,-99.99,,2013-01-23 18:53:00,
2013-01-23 11:00:00,58.0,24.0,-100.00,SSW,193,4.0,-999.0,27,0.00,,,-99.99,,2013-01-23 19:00:00,
2013-01-23 11:33:00,58.0,24.0,-100.00,SSW,193,4.0,-999.0,27,0.00,,,-99.99,,2013-01-23 19:33:00,
2013-01-23 11:43:00,58.0,24.0,-100.00,SSW,193,4.0,-999.0,27,0.00,,,-99.99,,2013-01-23 19:43:00,
2013-01-23 11:53:00,58.0,24.0,-100.00,SSW,193,4.0,-999.0,27,0.00,,,-99.99,,2013-01-23 19:53:00,
2013-01-23 12:00:00,59.0,24.0,-100.00,SSW,208,5.0,-999.0,26,0.00,,,-99.99,,2013-01-23 20:00:00,
2013-01-23 12:23:00,59.0,24.0,-100.00,SSW,208,5.0,-999.0,26,0.00,,,-99.99,,2013-01-23 20:23:00,
2013-01-23 12:33:00,59.0,24.0,-100.00,SSW,208,5.0,-999.0,26,0.00,,,-99.99,,2013-01-23 20:33:00,
2013-01-23 12:43:00,59.0,24.0,-100.00,SSW,208,5.0,-999.0,26,0.00,,,-99.99,,2013-01-23 20:43:00,
2013-01-23 12:53:00,59.0,24.0,-100.00,SSW,208,5.0,-999.0,26,0.00,,,-99.99,,2013-01-23 20:53:00,
2013-01-23 13:00:00,59.0,33.0,-100.00,SE,143,7.0,-999.0,37,0.00,,,-99.99,,2013-01-23 21:00:00,
2013-01-23 13:23:00,59.0,33.0,-100.00,SE,143,7.0,-999.0,37,0.00,,,-99.99,,2013-01-23 21:23:00,
2013-01-23 13:34:00,59.0,33.0,-100.00,SE,143,7.0,-999.0,37,0.00,,,-99.99,,2013-01-23 21:34:00,
2013-01-23 13:43:00,59.0,33.0,-100.00,SE,143,7.0,-999.0,37,0.00,,,-99.99,,2013-01-23 21:43:00,
2013-01-23 13:53:00,59.0,33.0,-100.00,SE,143,7.0,-999.0,37,0.00,,,-99.99,,2013-01-23 21:53:00,
2013-01-23 14:00:00,50.0,41.0,-100.00,SE,143,7.0,-999.0,70,0.00,,,-99.99,,2013-01-23 22:00:00,
2013-01-23 14:23:00,50.0,41.0,-100.00,SE,143,7.0,-999.0,70,0.00,,,-99.99,,2013-01-23 22:23:00,
2013-01-23 14:33:00,50.0,41.0,-100.00,SE,143,7.0,-999.0,70,0.00,,,-99.99,,2013-01-23 22:33:00,
2013-01-23 14:43:00,50.0,41.0,-100.00,SE,143,7.0,-999.0,70,0.00,,,-99.99,,2013-01-23 22:43:00,
2013-01-23 14:53:00,50.0,41.0,-100.00,SE,143,7.0,-999.0,70,0.00,,,-99.99,,2013-01-23 22:53:00,
2013-01-23 15:00:00,51.0,41.0,-100.00,SE,145,5.0,-999.0,67,0.00,,,-99.99,,2013-01-23 23:00:00,
2013-01-23 15:23:00,51.0,41.0,-100.00,SE,145,5.0,-999.0,67,0.00,,,-99.99,,2013-01-23 23:23:00,
2013-01-23 15:33:00,51.0,41.0,-100.00,SE,145,5.0,-999.0,67,0.00,,,-99.99,,2013-01-23 23:33:00,
2013-01-23 15:43:00,51.0,41.0,-100.00,SE,145,5.0,-999.0,67,0.00,,,-99.99,,2013-01-23 23:43:00,
2013-01-23 15:53:00,51.0,41.0,-100.00,SE,145,5.0,-999.0,67,0.00,,,-99.99,,2013-01-23 23:53:00,
2013-01-23 16:00:00,46.0,43.0,-100.00,West,281,6.0,-999.0,90,0.00,,,-99.99,,2013-01-24 00:00:00,
2013-01-23 16:22:00,46.0,43.0,-100.00,West,281,6.0,-999.0,90,0.00,,,-99.99,,2013-01-24 00:22:00,
2013-01-23 16:33:00,46.0,43.0,-100.00,West,281,6.0,-999.0,90,0.00,,,-99.99,,2013-01-24 00:33:00,
2013-01-23 16:43:00,46.0,43.0,-100.00,West,281,6.0,-999.0,90,0.00,,,-99.99,,2013-01-24 00:43:00,
2013-01-23 16:53:00,46.0,43.0,-100.00,West,281,6.0,-999.0,90,0.00,,,-99.99,,2013-01-24 00:53:00,
2013-01-23 17:00:00,50.0,47.0,-100.00,WSW,258,3.0,-999.0,89,0.00,,,-99.99,,2013-01-24 01:00:00,
2013-01-23 17:23:00,50.0,47.0,-100.00,WSW,258,3.0,-999.0,89,0.00,,,-99.99,,2013-01-24 01:23:00,
2013-01-23 17:33:00,50.0,47.0,-100.00,WSW,258,3.0,-999.0,89,0.00,,,-99.99,,2013-01-24 01:33:00,
2013-01-23 17:43:00,50.0,47.0,-100.00,WSW,258,3.0,-999.0,89,0.00,,,-99.99,,2013-01-24 01:43:00,
2013-01-23 17:52:00,50.0,47.0,-100.00,WSW,258,3.0,-999.0,89,0.00,,,-99.99,,2013-01-24 01:52:00,
2013-01-23 18:00:00,51.0,48.0,-100.00,SW,220,2.0,-999.0,89,0.00,,,-99.99,,2013-01-24 02:00:00,
2013-01-23 18:23:00,51.0,48.0,-100.00,SW,220,2.0,-999.0,89,0.00,,,-99.99,,2013-01-24 02:23:00,
2013-01-23 18:33:00,51.0,48.0,-100.00,SW,220,2.0,-999.0,89,0.00,,,-99.99,,2013-01-24 02:33:00,
2013-01-23 18:42:00,51.0,48.0,-100.00,SW,220,2.0,-999.0,89,0.00,,,-99.99,,2013-01-24 02:42:00,
2013-01-23 18:52:00,51.0,48.0,-100.00,SW,220,2.0,-999.0,89,0.00,,,-99.99,,2013-01-24 02:52:00,
2013-01-23 19:00:00,51.0,47.0,-100.00,NW,311,3.0,-999.0,89,0.00,,,-99.99,,2013-01-24 03:00:00,
2013-01-23 19:22:00,51.0,47.0,-100.00,NW,311,3.0,-999.0,89,0.00,,,-99.99,,2013-01-24 03:22:00,
2013-01-23 19:33:00,51.0,47.0,-100.00,NW,311,3.0,-999.0,89,0.00,,,-99.99,,2013-01-24 03:33:00,
2013-01-23 19:43:00,51.0,47.0,-100.00,NW,311,3.0,-999.0,89,0.00,,,-99.99,,2013-01-24 03:43:00,
2013-01-23 19:52:00,51.0,47.0,-100.00,NW,311,3.0,-999.0,89,0.00,,,-99.99,,2013-01-24 03:52:00,
2013-01-23 20:00:00,49.0,47.0,-100.00,East,89,6.0,-999.0,92,0.00,,,-99.99,,2013-01-24 04:00:00,
2013-01-23 20:22:00,49.0,47.0,-100.00,East,89,6.0,-999.0,92,0.00,,,-99.99,,2013-01-24 04:22:00,
2013-01-23 20:33:00,49.0,47.0,-100.00,East,89,6.0,-999.0,92,0.00,,,-99.99,,2013-01-24 04:33:00,
2013-01-23 20:43:00,49.0,47.0,-100.00,East,89,6.0,-999.0,92,0.00,,,-99.99,,2013-01-24 04:43:00,
2013-01-23 20:53:00,49.0,47.0,-100.00,East,89,6.0,-999.0,92,0.00,,,-99.99,,2013-01-24 04:53:00,
2013-01-23 21:00:00,50.0,47.0,-100.00,NE,43,3.0,-999.0,90,0.00,,,-99.99,,2013-01-24 05:00:00,
2013-01-23 21:23:00,50.0,47.0,-100.00,NE,43,3.0,-999.0,90,0.00,,,-99.99,,2013-01-24 05:23:00,
2013-01-23 21:33:00,50.0,47.0,-100.00,NE,43,3.0,-999.0,90,0.00,,,-99.99,,2013-01-24 05:33:00,
2013-01-23 21:43:00,50.0,47.0,-100.00,NE,43,3.0,-999.0,90,0.00,,,-99.99,,2013-01-24 05:43:00,
2013-01-23 21:53:00,50.0,47.0,-100.00,NE,43,3.0,-999.0,90,0.00,,,-99.99,,2013-01-24 05:53:00,
2013-01-23 22:00:00,49.0,47.0,-100.00,ENE,66,9.0,-999.0,92,0.00,,,-99.99,,2013-01-24 06:00:00,
2013-01-23 22:22:00,49.0,47.0,-100.00,ENE,66,9.0,-999.0,92,0.00,,,-99.99,,2013-01-24 06:22:00,
2013-01-23 22:32:00,49.0,47.0,-100.00,ENE,66,9.0,-999.0,92,0.00,,,-99.99,,2013-01-24 06:32:00,
2013-01-23 22:42:00,49.0,47.0,-100.00,ENE,66,9.0,-999.0,92,0.00,,,-99.99,,2013-01-24 06:42:00,
2013-01-23 22:52:00,49.0,47.0,-100.00,ENE,66,9.0,-999.0,92,0.00,,,-99.99,,2013-01-24 06:52:00,
2013-01-23 23:00:00,46.0,44.0,-100.00,ENE,64,9.0,-999.0,94,0.00,,,-99.99,,2013-01-24 07:00:00,
2013-01-23 23:23:00,46.0,44.0,-100.00,ENE,64,9.0,-999.0,94,0.00,,,-99.99,,2013-01-24 07:23:00,
2013-01-23 23:33:00,46.0,44.0,-100.00,ENE,64,9.0,-999.0,94,0.00,,,-99.99,,2013-01-24 07:33:00,
2013-01-23 23:43:00,46.0,44.0,-100.00,ENE,64,9.0,-999.0,94,0.00,,,-99.99,,2013-01-24 07:43:00,
2013-01-23 23:53:00,46.0,44.0,-100.00,ENE,64,9.0,-999.0,94,0.00,,,-99.99,,2013-01-24 07:53:00,